Regional Weather Roundup
Issued by NWS

Home | Current Version | Previous Version | Text Only | Print | Product List | Glossary Off
Versions: 1 2 3 4 5 6 7 8 9 10 11 12 13 14 15 16 17 18 19 20 21 22 23 24 25 26 27 28 29 30 31 32 33 34 35 36 37 38 39 40 41 42 43 44 45 46 47 48 49 50

000
ASUS44 KMEG 051700
RWRTN
TENNESSEE HOURLY STATE WEATHER ROUNDUP
NATIONAL WEATHER SERVICE MEMPHIS TN
1100 AM CST THU MAR 05 2015

TNZ002-004-019-021-049-052-054-088>092-051800-
WEST TENNESSEE

CITY           SKY/WX    TMP DP  RH WIND       PRES   REMARKS
MEMPHIS INTL   PTSUNNY   26  15  63 N14G23    30.52R WCI  14
NWS MEMPHIS      N/A     25 N/A N/A MISG        N/A
JACKSON        CLOUDY    23  11  60 N16       30.49R WCI  10
DYERSBURG      MOSUNNY   25   3  39 N13G21    30.53R WCI  13
UNION CITY       N/A     23  12  63 N14       30.50R WCI  11
PARIS            N/A     19   7  58 N12       30.47R WCI   7
LEXINGTON      CLOUDY    21  16  79 N8        30.43R WCI  12
SAVANNAH       CLOUDY    21  18  86 N13       30.43R WCI   9
$$

TNZ008-025-027-028-033-062-065-066-051800-
NORTH MIDDLE TENNESSEE

CITY           SKY/WX    TMP DP  RH WIND       PRES   REMARKS
NASHVILLE      CLOUDY    23  18  81 N12       30.37S WCI  12
CLARKSVILLE    CLOUDY    21  13  71 N16       30.43R WCI   7
COOKEVILLE     CLOUDY    25  21  86 N7        30.26R WCI  17
CROSSVILLE     CLOUDY    24  20  84 N12       30.16F WCI  13
$$

TNZ061-075-076-078-094-096-097-051800-
SOUTH MIDDLE TENNESSEE

CITY           SKY/WX    TMP DP  RH WIND       PRES   REMARKS
FAYETTEVILLE   CLOUDY    23  19  86 N13         N/A  WCI  11
TULLAHOMA      CLOUDY    21  19  93 N12         N/A  WCI   9
WINCHESTER     CLOUDY    25  21  86 N13       30.25R WCI  13
COLUMBIA       CLOUDY    21  21 100 N9        30.36R WCI  11
SHELBYVILLE    CLOUDY    25  21  86 N12       30.31R WCI  14
$$

TNZ017-018-042-046-047-051800-
NORTHEAST TENNESSEE

CITY           SKY/WX    TMP DP  RH WIND       PRES   REMARKS
TRI CITIES     LGT SNOW  33  32  96 CALM      30.12F FOG
ELIZABETHTON   RAIN      32  30  93 SW8       30.10R FOG     WCI  25
$$

TNZ012-013-036-069-073-074-051800-
CENTRAL EAST TENNESSEE

CITY           SKY/WX    TMP DP  RH WIND       PRES   REMARKS
KNOXVILLE      LGT RAIN  32  30  92 N12       30.11F WCI  23
OAK RIDGE      FRZ RAIN  32  29  88 VRB7      30.15F WCI  26
GATLINBURG     CLOUDY    34  34 100 CALM      30.10F
$$

TNZ083-085-099-051800-
SOUTHEAST TENNESSEE

CITY           SKY/WX    TMP DP  RH WIND       PRES   REMARKS
CHATTANOOGA    LGT RAIN  37  34  89 NW12      30.14F WCI  29
$$

SKY/WX REPORTED AS FAIR MEANS FEW OR NO CLOUDS BELOW
12 THOUSAND FEET.



USA.gov is the U.S. government's official web portal to all federal, state and local government web resources and services.